Location: Normandy Village
(37.8755°N, 122.2655°W)
Time: 08:03:56
(UTC+00:00)

Shenzhou-11 Module - Pass Details

Date: 11 December 2019
Orbit: 302 x 315 km, 42.8° (Epoch: 25 January)

Event Time Altitude Azimuth Distance (km) Brightness Sun altitude
Rises 02:12:26 0° 293° (WNW) 2,073 6.6 -15.8°
Reaches altitude 10° 02:14:29 10° 300° (WNW) 1,236 5.2 -16.2°
Enters shadow 02:17:03 45° 6° (N) 448 2.2 -16.7°
